Location: Ravensburg
(48.5621°N, 13.4088°E)
Time: 10:36:25
(UTC+01:00)

ISS - Pass Details

Date: 06 January 2018
Orbit: 402 x 406 km, 51.6° (Epoch: 16 January)

Event Time Altitude Azimuth Distance (km) Brightness Sun altitude
Exits shadow 05:15:36 22° 60° (ENE) 939 -1.5 -25.9°
Drops below altitude 10° 05:16:58 10° 68° (ENE) 1,468 -0.2 -25.6°
Sets 05:19:05 0° 73° (ENE) 2,330 1.1 -25.3°
